Terminal Aerodrome Forecast
Issued by NWS

Home | Current Version | Previous Version | Text Only | Print | Product List | Glossary On
Versions: 1 2 3 4 5 6 7 8 9 10 11 12 13 14 15
000
FTPA31 PHFO 242320
TAFHNY
TAF
PHNY 242320Z 2500/2524 04014G23KT P6SM SCT020 BKN035
     FM250700 05011KT P6SM SCT020 SCT035
     FM252000 27007KT P6SM SCT020 BKN030
      AMD LTD TO VIS AND WIND=

USA.gov is the U.S. government's official web portal to all federal, state and local government web resources and services.